User: anonymous   Login
Location: Knowlton
(51.2333°N, 1.2667°E)
Time: 14:08:05
(UTC+00:00)
Language:

Cosmos 1603 - Orbit

View from above orbital plane
View from above orbital plane
View from above satellite
View from above satellite

Ground track
Ground track

The orbit data is extracted from the following two-line orbital elements,

1 15333U 84106A   21170.63848666 -.00000149  00000-0 -53188-4 0  9997
2 15333  71.0279 267.7723 0017975 144.5283 215.7039 14.14122047894906
Epoch (UTC): 19 June 2021 15:19:25
Eccentricity: 0.0017975
inclination: 71.0279°
perigee height: 832 km
apogee height: 858 km
right ascension of ascending node: 267.7723°
argument of perigee: 144.5283°
revolutions per day: 14.14122047
mean anomaly at epoch: 215.7039°
orbit number at epoch: 89490

The dashed part of the orbit path shows where the satellite is in the earth's shadow,  

DLR